Regional Weather Roundup
Issued by NWS

Home | Current Version | Previous Version | Text Only | Print | Product List | Glossary On
Versions: 1 2 3 4 5 6 7 8 9 10 11 12 13 14 15 16 17 18 19 20 21 22 23 24 25 26 27 28 29 30 31 32 33 34 35 36 37 38 39 40 41 42 43 44 45 46 47 48 49 50
000
ASUS43 KFSD 020310
RWRSD

WEATHER ROUNDUP FOR SOUTH DAKOTA
NATIONAL WEATHER SERVICE SIOUX FALLS SD
900 PM CST SUN MAR 01 2015

NOTE: "FAIR" INDICATES FEW OR NO CLOUDS BELOW 12,000 FEET WITH NO
SIGNIFICANT WEATHER AND/OR OBSTRUCTIONS TO VISIBILITY.


SDZ001>005-009-010-012>017-020400-
NORTHWEST AND NORTH CENTRAL SOUTH DAKOTA

CITY           SKY/WX    TMP DP  RH WIND       PRES   REMARKS
BUFFALO          N/A     18   9  68 SE5       30.20S WCI  11
FAITH            N/A     18   6  59 NW5       30.32F WCI  11
MOBRIDGE       CLEAR     13   8  81 NE5       30.35R WCI   5
$$

SDZ012>016-024>037-041>051-057-063-072>074-020400-
SOUTHWEST AND SOUTH CENTRAL SOUTH DAKOTA

CITY           SKY/WX    TMP DP  RH WIND       PRES   REMARKS
RAPID CTY ARPT CLEAR      8   4  83 CALM      30.31S
PIERRE         CLEAR     18  11  74 NE6       30.39R WCI  10
CUSTER         CLEAR      9   3  77 S5        30.16F WCI   1
ELLSWORTH AFB  CLEAR     13   6  72 W2        30.29S
PHILIP         CLEAR     15   5  64 NW3       30.36S
PINE RIDGE     CLEAR     16   7  67 NE6       30.31R WCI   7
WINNER         FAIR      23   3  42 W3        30.38S
$$

SDZ004>011-016>023-039-040-020400-
NORTHEAST SOUTH DAKOTA

CITY           SKY/WX    TMP DP  RH WIND       PRES   REMARKS
ABERDEEN       CLEAR     11   5  77 W5        30.40S WCI   3
WATERTOWN      CLEAR     15   9  76 NW8       30.35S WCI   4
SISSETON         N/A     16   8  71 NW12      30.38  WCI   3
$$

SDZ017-020-022-023-036>040-048>070-020400-
SOUTHEAST SOUTH DAKOTA

CITY           SKY/WX    TMP DP  RH WIND       PRES   REMARKS
SIOUX FALLS    CLEAR     18  12  77 W5        30.40R WCI  11
HURON          CLEAR     11   8  88 N7        30.41R WCI   0
CHAMBERLAIN    CLEAR     20  11  66 CALM      30.40R
MITCHELL       CLEAR     20  13  74 SW3       30.43R
YANKTON        CLEAR     21  10  63 NW6       30.43R WCI  14
$$

ABBREVIATIONS USED IN REMARKS
   TC - TEMPERATURE IN CELSIUS
  WCI - WIND CHILL INDEX
   HX - HEAT INDEX
  VSB - VISIBILITY



USA.gov is the U.S. government's official web portal to all federal, state and local government web resources and services.